Theta_e
344 345 344 346 345 344 341 339 339 339 338 337 336 334 333 331 331 330 329 327 327 326
343 341 341 341 342 341 340 339 337 337 335 332 331 329 326 321 318 318 318 316 315 314
339 341 341 341 339 338 337 335 333 330 324 319 318 315 313 310 309 308 308 310 311 310
339 339 339 338 336 334 333 331 324 318 313 311 311 308 305 304 304 303 302 304 305 305
337 335 334 332 332 332 324 319 313 311 308 307 305 303 303 302 302 301 300 301 303 305
332 328 324 319 318 316 314 312 309 307 304 304 303 301 301 301 300 299 300 302 303 301
319 316 314 313 311 310 308 304 302 302 302 301 300 300 300 300 300 301 303 303 302 302
312 311 310 309 307 304 303 302 301 299 299 298 299 301 299 301 301 301 302 303 303 303
309 308 307 307 305 302 301 299 298 296 295 295 298 300 302 300 299 299 300 300 298 298
308 307 305 304 302 300 297 296 294 293 294 293 295 297 299 300 296 296 297 295 295 297
307 304 304 302 299 298 295 294 293 292 292 293 296 296 296 298 295 295 294 294 294 293
305 304 303 300 299 297 295 294 292 292 292 292 292 295 295 294 293 293 293 295 295 294
306 304 302 300 299 297 296 294 293 292 291 294 290 294 294 292 292 291 292 293 294 297
303 301 300 299 298 297 296 294 291 290 289 289 290 291 293 294 291 290 292 295 295 294
Wind_Speed
12 7 5 7 7 6 5 8 9 9 4 7 5 4 5 4 4 5 4 6 4 4
7 8 7 8 6 5 11 10 14 11 6 4 6 6 7 5 6 7 6 6 5 4
10 9 9 8 9 10 11 13 12 15 10 10 8 8 8 5 5 9 5 4 6 4
12 11 9 13 12 9 12 15 11 13 12 11 10 8 9 6 7 7 6 5 5 5
15 13 12 13 14 13 14 12 13 12 13 12 10 7 8 7 5 6 6 5 6 6
16 15 14 14 15 13 15 12 12 13 12 11 8 8 6 6 5 5 5 6 7 6
17 17 14 16 16 15 13 13 13 13 12 9 8 7 5 5 5 6 6 6 6 6
17 17 17 18 16 15 14 13 12 12 9 7 7 5 6 6 7 6 6 5 5 5
19 18 17 18 16 15 14 12 12 10 9 7 6 9 10 8 6 5 5 6 5 5
20 20 16 16 17 14 13 12 11 9 8 7 6 11 11 9 5 5 6 6 5 5
19 18 16 17 16 13 11 11 10 9 8 9 7 11 9 9 6 7 7 6 5 6
17 16 16 19 14 12 12 11 10 9 9 10 7 10 8 7 6 6 6 5 6 6
16 15 16 16 14 9 11 12 9 10 7 11 6 10 10 6 4 5 4 5 6 11
14 15 14 14 12 12 12 11 10 9 6 6 6 7 11 9 5 4 4 5 6 5
Wind_Direction
183 171 147 154 157 168 121 103 92 90 98 100 109 120 104 116 97 89 92 81 69 67
160 126 141 139 138 109 116 124 128 116 100 91 97 79 67 66 81 78 69 68 71 73
139 135 136 124 129 132 109 107 89 111 118 97 80 88 83 71 64 79 55 58 64 50
140 129 132 113 112 111 101 107 118 97 103 94 91 75 87 74 64 76 71 52 62 45
123 120 114 110 114 111 98 97 102 100 95 90 81 69 75 78 69 71 62 49 49 47
119 113 110 108 101 100 102 104 103 92 88 82 79 79 66 72 69 69 60 56 77 82
110 110 110 104 99 97 98 101 88 84 84 83 79 68 67 68 66 67 73 78 86 89
109 106 106 101 99 96 94 88 88 91 84 79 76 71 82 69 73 89 90 87 82 74
111 106 104 106 100 96 94 90 89 80 79 73 73 79 87 83 84 90 99 113 85 74
113 107 108 106 102 101 99 97 89 83 87 76 69 66 76 85 89 91 81 81 67 55
109 109 114 106 101 105 102 102 101 90 74 73 57 67 77 85 90 91 86 80 69 59
112 117 116 105 115 113 112 102 95 90 82 78 57 65 73 92 89 86 74 61 51 56
111 113 111 113 119 116 108 105 99 86 75 88 76 56 70 78 94 82 73 54 55 45
102 109 110 111 115 115 109 103 95 92 71 68 70 49 58 63 80 81 68 61 56 65